This is the latest recevied weather packets stored in our database for station/object KB1RMA-4. If no packets are shown the sender has not sent any weather packets the latest 1 day(s).
| Time | Temp. | Humidity | Pressure | Rain* | Wind** | Luminosity | Snow |
|---|---|---|---|---|---|---|---|
| 1777987212 | 20° C | 50% | 1009.4 hPa | 0 mm | 0 m/s | 311 W/m² | - |
| 1777986908 | 20° C | 50% | 1009.5 hPa | 0 mm | 0 m/s | 187 W/m² | - |
| 1777986606 | 19.44° C | 50% | 1009.4 hPa | 0 mm | 1.34 m/s, 264° | 205 W/m² | - |
| 1777986303 | 19.44° C | 50% | 1009.4 hPa | 0 mm | 0 m/s | 180 W/m² | - |
| 1777986001 | 19.44° C | 51% | 1009.3 hPa | 0 mm | 0.45 m/s, 259° | 131 W/m² | - |
| 1777985698 | 18.89° C | 51% | 1009.5 hPa | 0 mm | 0.45 m/s, 261° | 206 W/m² | - |
| 1777985395 | 18.89° C | 52% | 1009.6 hPa | 0 mm | 0.45 m/s, 289° | 192 W/m² | - |
| 1777985091 | 18.89° C | 52% | 1009.9 hPa | 0 mm | 0 m/s | 225 W/m² | - |
| 1777984787 | 18.33° C | 52% | 1009.7 hPa | 0 mm | 0 m/s | 204 W/m² | - |
| 1777984484 | 18.33° C | 53% | 1010 hPa | 0 mm | 0 m/s | 131 W/m² | - |
| 1777984180 | 18.33° C | 53% | 1009.6 hPa | 0 mm | 0.45 m/s, 272° | 182 W/m² | - |
| 1777983878 | 18.33° C | 54% | 1009.6 hPa | 0 mm | 0 m/s | 223 W/m² | - |
| 1777983574 | 17.78° C | 54% | 1009.7 hPa | 0 mm | 0.89 m/s, 243° | 216 W/m² | - |
| 1777983272 | 17.78° C | 55% | 1009.4 hPa | 0 mm | 0 m/s | 132 W/m² | - |
| 1777982967 | 17.78° C | 55% | 1009.5 hPa | 0 mm | 0.45 m/s, 262° | 155 W/m² | - |
| 1777982664 | 17.22° C | 56% | 1009.4 hPa | 0 mm | 0 m/s | 216 W/m² | - |
| 1777982363 | 17.22° C | 56% | 1009.4 hPa | 0 mm | 0 m/s | 93 W/m² | - |
| 1777982060 | 16.67° C | 56% | 1009.3 hPa | 0 mm | 0.45 m/s, 261° | 134 W/m² | - |
| 1777981758 | 16.67° C | 56% | 1009.6 hPa | 0 mm | 0.45 m/s, 260° | 146 W/m² | - |
| 1777981454 | 16.67° C | 58% | 1009.6 hPa | 0 mm | 0 m/s | 134 W/m² | - |
| 1777981150 | 16.11° C | 58% | 1009.6 hPa | 0 mm | 0 m/s | 106 W/m² | - |
| 1777980847 | 15.56° C | 59% | 1009.5 hPa | 0 mm | 0.45 m/s, 230° | 131 W/m² | - |
| 1777980543 | 15.56° C | 60% | 1009.5 hPa | 0 mm | 0 m/s | 69 W/m² | - |
| 1777980240 | 15° C | 61% | 1009.6 hPa | 0 mm | 0 m/s | 66 W/m² | - |
| 1777979936 | 15° C | 62% | 1009.5 hPa | 0 mm | 0 m/s | 62 W/m² | - |
* Rain latest hour (hover to see other rain measurements)
** Current wind speed in m/s (hover to see current wind gust speed)